[[{"header":{"parameterUnit":"m.s-1","parameterCategory":1,"la1":30.2991,"la2":30.254,"lo1":-89.0895,"lo2":-89.0444,"dy":0.0017,"dx":0.0017,"nx":28,"ny":28,"refTime":"2025-12-30T09:00:00:Z","depth":0,"parameterNumber":2,"parameterNumberName":"U-component_of_WINDS"},"data":[0,0,0,0,0,0,0,0,0,0,0,0,0,0,0,0,0,0,0,0,0,0,0,0,0,0,0,0,0,0,0,0,0,0,0,0,0,0,0,0,0,0,0,0,0,0,0,0,0,0,0,0,0,0,0,0,0,0,4.9611,4.9613,0,4.9791,4.9793,4.9795,4.9702,4.9697,4.9692,4.9688,4.9875,4.9884,4.9894,0,0,0,0,0,0,0,0,0,0,0,0,0,4.9188,4.9197,4.9611,4.9613,4.9615,4.979,4.9793,4.9795,4.9703,4.9697,4.9691,4.9686,4.9872,4.9883,4.9895,0,0,0,0,0,0,0,0,0,0,0,0,0,4.9371,4.9199,4.961,4.959,4.959,4.979,4.9793,4.9796,4.9704,4.9697,4.969,4.9683,4.9868,4.9882,4.9896,5.0127,0,0,4.9939,4.9946,0,0,0,0,0,0,0,0,4.936,4.9386,4.9591,4.9592,4.9592,4.9716,4.9712,4.9907,4.9706,4.9661,4.9688,4.9679,4.9828,4.9845,4.9895,5.0136,5.0144,4.9941,4.9949,4.9955,4.9959,0,0,0,0,0,0,0,4.9348,4.9378,4.9682,4.9594,4.9595,4.9572,4.959,4.9749,4.9783,4.9664,4.9658,4.968,4.9827,4.9882,4.9899,5.0146,4.994,4.9953,4.9962,4.9967,5.0583,5.0591,0,0,0,0,0,0,4.9336,4.9368,4.9676,4.9687,4.9456,4.9586,4.9606,4.9684,4.9781,4.9789,4.9686,4.9675,4.9861,4.9882,4.9905,5.018,4.9955,4.9968,4.9977,5.0575,5.0585,5.0593,0,0,0,0,0,0,4.9327,4.9364,4.9669,4.9526,4.9563,4.9601,4.9689,4.9691,4.9745,4.9797,4.9803,4.9735,4.9856,4.9885,5.0072,5.0185,4.9975,4.9988,5.0566,5.0578,5.0589,5.0732,0,0,0,0,0,0,4.9316,4.9362,4.945,4.9529,4.9571,4.9833,4.9696,4.97,4.9769,4.9757,4.9845,4.9853,4.9853,5.0051,5.0086,5.0201,4.9999,5.0556,5.0571,5.0585,5.0718,5.0748,5.0773,0,0,0,0,0,4.9301,4.9484,4.9455,4.9492,4.9682,4.984,4.9864,4.9859,4.9779,4.9868,4.9901,4.985,5.0167,5.0071,5.0109,5.023,5.0549,5.0567,5.0584,5.0705,5.0742,5.0773,0,0,0,0,0,0,4.9419,4.9494,4.9462,4.9677,4.9752,4.9823,4.9935,4.9898,4.9999,4.9983,4.9974,4.9995,5.0188,5.0228,5.012,5.0457,5.0345,5.0372,5.0424,5.046,5.0487,5.0473,5.0011,0,0,0,0,0,4.947,4.9592,4.9651,4.9834,4.9873,4.9898,4.9967,4.9956,5.0035,5.0067,5.0113,5.0192,5.0309,5.0386,5.0497,5.0723,5.074,5.0825,5.0852,5.0875,5.0898,5.1018,5.1056,5.0651,5.0651,5.0651,0,0,4.9577,4.9633,4.971,4.9859,4.9916,5.0042,4.9926,5.0064,5.0157,5.0088,5.0266,5.0303,5.039,5.0597,5.069,5.0636,5.1013,5.0898,5.0915,5.0926,5.104,5.1078,5.1112,5.0663,5.0661,5.0659,0,0,4.9836,4.9891,5.0048,5.0107,5.0195,5.021,5.0248,5.0325,5.0346,5.0524,5.0474,5.0585,5.0787,5.0851,5.0909,5.119,5.1146,5.1226,5.1371,5.1488,5.152,5.1548,5.1647,5.1682,5.1249,5.1249,5.1249,0,4.9958,5.0144,5.0134,5.0276,5.0343,5.0284,5.0443,5.0501,5.0621,5.0668,5.0605,5.0856,5.0911,5.113,5.1198,5.1248,5.1291,5.1216,5.1516,5.1544,5.157,5.1664,5.1701,5.1258,5.1257,5.1256,5.1255,0,5.0289,5.042,5.0537,5.0652,5.0731,5.0882,5.0894,5.0976,5.0958,5.098,5.1161,5.1224,5.1346,5.1397,5.1383,5.1615,5.1577,5.1516,5.1403,5.1618,5.1706,5.1742,5.1271,5.1268,5.1265,5.1263,0,0,5.0629,5.0735,5.0778,5.0828,5.0919,5.102,5.1167,5.1284,5.1354,5.1438,5.1561,5.1732,5.1674,5.1741,5.1733,5.1836,5.2051,5.1761,5.1763,5.1812,5.2309,5.2354,5.2396,5.2023,5.203,5.2035,5.2301,0,5.0893,5.1148,5.1142,5.138,5.15,5.1444,5.1572,5.1642,5.1665,5.177,5.1796,5.1917,5.1833,5.1872,5.1972,5.2004,5.2151,5.1985,5.2136,5.2142,5.2115,5.2442,5.2491,5.2739,5.2335,5.2341,5.2345,0,5.1235,5.1328,5.1577,5.1649,5.1698,5.1813,5.1919,5.202,5.2098,5.2107,5.2181,5.2155,5.2304,5.2187,5.2391,5.2278,5.2339,5.2364,5.2374,5.2387,5.2256,5.2463,5.2818,5.2855,5.24,5.2395,5.2392,0,5.1456,5.1644,5.1817,5.1862,5.195,5.2032,5.2072,5.2142,5.2212,5.2305,5.235,5.246,5.252,5.2605,5.2609,5.2524,5.2815,5.2699,5.2826,5.2826,5.289,5.2886,5.3258,5.2932,5.2931,5.293,5.2929,0,5.1751,5.1905,5.1917,5.2023,5.2194,5.2185,5.2355,5.2388,5.245,5.2561,5.2521,5.2626,5.2626,5.2734,5.2739,5.2906,5.2934,5.2945,5.2944,5.2948,5.2947,5.2988,5.2971,5.294,5.2938,5.2936,5.2934,0,5.2027,5.2041,5.2225,5.2292,5.2313,5.2435,5.2493,5.2594,5.2612,5.2754,5.2787,5.2817,5.2941,5.2953,5.3099,5.3101,5.3303,5.3284,5.3276,5.3273,5.3399,5.3387,5.3811,5.3865,5.3504,5.3508,5.351,0,5.2213,5.233,5.2409,5.248,5.2525,5.264,5.271,5.2706,5.2781,5.2877,5.2966,5.3086,5.3181,5.3382,5.3417,5.3527,5.351,5.3651,5.3527,5.3526,5.3511,5.3503,5.3514,5.3675,5.3679,5.3683,5.3685,0,5.2543,5.2543,5.2646,5.2751,5.2836,5.2919,5.2997,5.3057,5.3062,5.3149,5.3274,5.3348,5.3494,5.3614,5.3721,5.3763,5.3726,5.3724,5.3759,5.3764,5.3754,5.3759,5.3341,5.3714,5.3711,5.3709,5.3708,5.3707,5.2779,5.288,5.295,5.3065,5.3123,5.3195,5.3293,5.3323,5.3427,5.3545,5.3536,5.3674,5.3746,5.3887,5.3936,5.4044,5.3997,5.4049,5.4061,5.4074,5.4086,5.3737,5.4064,5.4063,5.4063,5.4062,5.4061,0,5.3106,5.3147,5.3253,5.3362,5.3452,5.3407,5.349,5.3569,5.369,5.376,5.3854,5.3997,5.4112,5.4155,5.4267,5.4345,5.433,5.4374,5.4368,5.4378,5.4123,5.408,5.4384,5.4384,5.4384,5.4384,5.4384,5.4384,5.3286,5.3453,5.3461,5.3656,5.3696,5.383,5.3881,5.3948,5.4003,5.4164,5.4259,5.4285,5.4344,5.4459,5.4562,5.4572,5.4614,5.4666,5.4668,5.4429,5.4396,5.4365,5.4325,5.4675,5.4676,5.4914,5.4916,5.4918]},{"header":{"parameterUnit":"m.s-1","parameterCategory":1,"la1":30.2991,"la2":30.254,"lo1":-89.0895,"lo2":-89.0444,"dy":0.0017,"dx":0.0017,"nx":28,"ny":28,"refTime":"2025-12-30T09:00:00:Z","depth":0,"parameterNumber":3,"parameterNumberName":"V-component_of_WINDS"},"data":[0,0,0,0,0,0,0,0,0,0,0,0,0,0,0,0,0,0,0,0,0,0,0,0,0,0,0,0,0,0,0,0,0,0,0,0,0,0,0,0,0,0,0,0,0,0,0,0,0,0,0,0,0,0,0,0,0,0,0.9254,0.9254,0,0.924,0.924,0.924,0.9189,0.9188,0.9187,0.9186,0.9173,0.9174,0.9175,0,0,0,0,0,0,0,0,0,0,0,0,0,0.9235,0.9236,0.9254,0.9254,0.9253,0.924,0.924,0.924,0.9189,0.9188,0.9186,0.9185,0.9173,0.9174,0.9175,0,0,0,0,0,0,0,0,0,0,0,0,0,0.9235,0.9236,0.9254,0.9227,0.9224,0.924,0.924,0.924,0.919,0.9188,0.9186,0.9184,0.9173,0.9174,0.9175,0.9217,0,0,0.9178,0.9179,0,0,0,0,0,0,0,0,0.9235,0.9236,0.9231,0.9228,0.9226,0.9215,0.9229,0.9232,0.919,0.9203,0.9186,0.9184,0.9188,0.9188,0.9189,0.9216,0.9216,0.9178,0.9179,0.9179,0.918,0,0,0,0,0,0,0,0.9235,0.9236,0.9249,0.9231,0.9228,0.9215,0.9213,0.9229,0.9206,0.9201,0.9198,0.9197,0.9187,0.9189,0.9189,0.9216,0.9178,0.9179,0.918,0.918,0.9274,0.9276,0,0,0,0,0,0,0.9239,0.9236,0.9249,0.9248,0.9226,0.9217,0.9214,0.922,0.9205,0.9201,0.9198,0.9194,0.9187,0.9188,0.9188,0.9236,0.9179,0.9181,0.9181,0.9273,0.9275,0.9277,0,0,0,0,0,0,0.9239,0.924,0.9249,0.9241,0.9241,0.9219,0.9225,0.9221,0.9222,0.9203,0.9198,0.9205,0.9186,0.9187,0.921,0.9234,0.9181,0.9182,0.9271,0.9273,0.9276,0.9331,0,0,0,0,0,0,0.9238,0.9241,0.9257,0.9242,0.9242,0.9272,0.9227,0.9222,0.9224,0.9219,0.9208,0.9204,0.9185,0.9208,0.9211,0.9235,0.9183,0.9268,0.9272,0.9275,0.9327,0.9336,0.9343,0,0,0,0,0,0.9238,0.9274,0.9258,0.926,0.9261,0.9273,0.9273,0.925,0.9227,0.9242,0.9229,0.9204,0.9231,0.9211,0.9214,0.9239,0.9267,0.9271,0.9275,0.9324,0.9334,0.9343,0,0,0,0,0,0,0.9293,0.9271,0.9254,0.9285,0.9281,0.9264,0.9284,0.9262,0.9265,0.926,0.9231,0.9229,0.9256,0.9249,0.9227,0.9278,0.9245,0.9249,0.9281,0.9291,0.9298,0.9299,0.9184,0,0,0,0,0,0.9309,0.932,0.93,0.933,0.9329,0.9307,0.9311,0.9293,0.9288,0.9286,0.9275,0.9271,0.9278,0.9284,0.929,0.9326,0.9322,0.9344,0.9352,0.9358,0.9363,0.938,0.9389,0.929,0.929,0.929,0,0,0.9342,0.9331,0.934,0.9341,0.9336,0.9348,0.9306,0.9321,0.9329,0.9289,0.9309,0.9301,0.9295,0.9324,0.9336,0.9319,0.9389,0.9364,0.9369,0.937,0.9385,0.9395,0.9403,0.9293,0.9293,0.9292,0,0,0.9407,0.9401,0.9424,0.942,0.9412,0.9396,0.9402,0.9388,0.9381,0.9401,0.937,0.938,0.9394,0.939,0.939,0.9452,0.9429,0.9455,0.9496,0.9513,0.9521,0.9528,0.9549,0.9557,0.9459,0.946,0.946,0,0.9449,0.9466,0.944,0.9456,0.9457,0.942,0.9443,0.944,0.9435,0.9436,0.9417,0.9432,0.9425,0.9452,0.9467,0.9469,0.9474,0.9456,0.9522,0.9528,0.9534,0.9554,0.9563,0.9463,0.9462,0.9462,0.9462,0,0.9518,0.953,0.955,0.9544,0.9547,0.9568,0.9544,0.955,0.9531,0.9518,0.9538,0.9529,0.9531,0.9536,0.9519,0.9561,0.955,0.9527,0.9493,0.9547,0.9566,0.9573,0.9467,0.9466,0.9465,0.9464,0,0,0.9619,0.9598,0.9605,0.9602,0.959,0.9598,0.9616,0.9618,0.9623,0.9621,0.9634,0.9646,0.9624,0.9623,0.9605,0.962,0.9669,0.9595,0.9594,0.9608,0.9713,0.9731,0.974,0.9653,0.9654,0.9656,0.9714,0,0.9681,0.971,0.9686,0.9719,0.9729,0.9693,0.9708,0.9702,0.969,0.9697,0.9683,0.9691,0.9661,0.9661,0.9674,0.966,0.969,0.9656,0.9665,0.9666,0.9668,0.975,0.9769,0.9824,0.9721,0.9722,0.9723,0,0.9758,0.9758,0.9792,0.9776,0.9779,0.9793,0.9792,0.9799,0.9791,0.9781,0.978,0.9757,0.9772,0.9739,0.976,0.9737,0.9739,0.9733,0.9734,0.9735,0.9698,0.9752,0.9842,0.985,0.9734,0.9733,0.9732,0,0.9828,0.9836,0.9857,0.9855,0.9837,0.9848,0.9841,0.9831,0.9833,0.9832,0.9833,0.9834,0.9835,0.9836,0.9813,0.9791,0.9836,0.9802,0.9828,0.9829,0.984,0.9839,0.993,0.9842,0.9841,0.9841,0.9841,0,0.99,0.9922,0.9888,0.9901,0.9924,0.9896,0.992,0.9909,0.99,0.991,0.9879,0.9889,0.9859,0.9865,0.9848,0.9867,0.9868,0.9859,0.9855,0.9862,0.9863,0.9863,0.9859,0.9843,0.9843,0.9843,0.9842,0,0.9983,0.9961,0.9981,0.9962,0.9957,0.9975,0.9959,0.9969,0.9954,0.9967,0.9968,0.9945,0.9951,0.9928,0.9931,0.9919,0.9947,0.9936,0.995,0.9946,0.9974,0.9971,1.0068,1.0079,0.9984,0.9985,0.9986,0,1.003,1.0046,1.0028,1.0032,1.0026,1.0034,1.0035,1.0007,1.001,1.0001,1.0013,1.0016,1.0017,1.0028,1.0011,1.0013,1.0001,1.0035,1.0001,1.0008,1.0001,1.0,1.0001,1.0042,1.0043,1.0044,1.0045,0,1.0116,1.0104,1.0107,1.0106,1.0109,1.0107,1.0103,1.0108,1.0078,1.0082,1.0088,1.0088,1.009,1.0093,1.0091,1.0083,1.0059,1.0056,1.0062,1.007,1.0077,1.0073,0.9969,1.0054,1.0053,1.0052,1.0052,1.0051,1.0182,1.0194,1.0183,1.0187,1.0181,1.0177,1.0186,1.0171,1.0175,1.0174,1.0157,1.0166,1.0155,1.0149,1.0144,1.015,1.0134,1.0143,1.0145,1.0148,1.0152,1.0076,1.0149,1.0149,1.0149,1.0149,1.0148,0,1.0266,1.0257,1.0261,1.0255,1.0258,1.0234,1.0228,1.0232,1.024,1.0233,1.0234,1.0239,1.0242,1.0224,1.0224,1.0232,1.0221,1.0233,1.0232,1.0231,1.0167,1.0161,1.0242,1.0242,1.0242,1.0242,1.0242,1.0242,1.031,1.0329,1.0315,1.033,1.032,1.0327,1.0326,1.0322,1.0316,1.0323,1.0325,1.0313,1.0301,1.03,1.0301,1.0296,1.0297,1.0313,1.0304,1.0245,1.0236,1.0227,1.0221,1.0314,1.0314,1.0367,1.0368,1.0368]}]]